Berlin, NH

6:26 PM EST on January 20, 2018 (GMT -0500)
Berlin Municipal

Weather History for KBML - January, 2001

Change the Weather History Date:

Saturday, January 27, 2001

  Actual Average Record
Temperature  
Mean Temperature 16 °F -  
Max Temperature 28 °F 22 °F 39 °F (2016)
Min Temperature 3 °F 0 °F -26 °F (2005)
Degree Days  
Heating Degree Days 50    
Moisture  
Dew Point 12 °F    
Average Humidity 76    
Maximum Humidity 92    
Minimum Humidity 49    
Precipitation  
Precipitation 0.01 in - - ()
Sea Level Pressure  
Sea Level Pressure 29.80 in    
Wind  
Wind Speed 2 mph (NW)    
Max Wind Speed 9 mph    
Max Gust Speed -    
Visibility 7 miles    
Events Snow    
Averages and records for this station are not official NWS values.
T = Trace of Precipitation, MM = Missing Value Source: NWS Daily Summary

Daily Weather History Graph

Daily Weather History Graph

Search for Another Location

Airport or City:

Trip Planner

Search our weather history database for the weather conditions in past years. The results will help you decide how hot, cold, wet, or windy it might be!

Date:

Astronomy

Jan. 27, 2001 Rise Set
Actual Time 7:08 AM EST 4:46 PM EST
Civil Twilight 6:37 AM EST 5:18 PM EST
Nautical Twilight 6:02 AM EST 5:53 PM EST
Astronomical Twilight 5:27 AM EST 6:27 PM EST
Moon 8:59 AM EST (1/27) 7:51 PM EST (1/27)
Length of Visible Light 10h 41m
Length of Day
9h 38m
Waxing Crescent, 9% of the Moon is Illuminated
Jan 27
Waxing Crescent
Feb 1
First Quarter
Feb 8
Full
Feb 14
Last Quarter
Feb 23
New

Hourly Weather History & Observations

Time (EST) Temp. Windchill Dew Point Humidity Pressure Visibility Wind Dir Wind Speed Gust Speed Precip Events Conditions
12:52 AM 3.0 °F - -0.0 °F 87% 29.89 in 8.0 mi Calm Calm - N/A   Clear
1:52 AM 5.0 °F - 1.9 °F 87% 29.87 in 8.0 mi Calm Calm - N/A   Scattered Clouds
2:52 AM 7.0 °F - 3.9 °F 87% 29.85 in 9.0 mi Calm Calm - N/A   Clear
3:52 AM 7.0 °F - 3.0 °F 84% 29.83 in 9.0 mi Calm Calm - N/A   Clear
4:52 AM 7.0 °F - 3.9 °F 87% 29.82 in 9.0 mi Calm Calm - N/A   Overcast
5:52 AM 8.1 °F 1.4 °F 5.0 °F 87% 29.80 in 10.0 mi WSW 3.5 mph - N/A   Overcast
6:52 AM 7.0 °F - 5.0 °F 92% 29.79 in 10.0 mi Calm Calm - N/A   Overcast
7:52 AM 9.0 °F - 5.0 °F 84% 29.79 in 7.0 mi Calm Calm - N/A   Mostly Cloudy
8:52 AM 10.0 °F - 6.1 °F 84% 29.80 in 9.0 mi Calm Calm - N/A   Overcast
9:52 AM 14.0 °F - 9.0 °F 80% 29.79 in 9.0 mi Calm Calm - N/A   Overcast
10:52 AM 18.0 °F - 10.0 °F 71% 29.77 in 10.0 mi Calm Calm - N/A   Scattered Clouds
11:52 AM 21.0 °F - 10.9 °F 65% 29.74 in 10.0 mi Calm Calm - N/A   Scattered Clouds
12:52 PM 25.0 °F - 9.0 °F 51% 29.72 in 10.0 mi Calm Calm - N/A   Overcast
1:52 PM 27.0 °F 23.0 °F 12.0 °F 53% 29.70 in 10.0 mi NNW 3.5 mph - N/A   Overcast
2:52 PM 28.0 °F 24.2 °F 12.0 °F 51% 29.70 in 10.0 mi NNW 3.5 mph - N/A   Overcast
3:52 PM 28.0 °F 22.8 °F 10.9 °F 49% 29.73 in 10.0 mi WNW 4.6 mph - 0.01 in   Overcast
4:52 PM 27.0 °F 23.0 °F 12.0 °F 53% 29.76 in 10.0 mi Variable 3.5 mph - N/A   Overcast
5:52 PM 26.1 °F 19.4 °F 14.0 °F 60% 29.78 in 10.0 mi NW 5.8 mph - N/A   Overcast
6:52 PM 25.0 °F 17.1 °F 14.0 °F 63% 29.81 in 10.0 mi NNW 6.9 mph - N/A   Overcast
7:52 PM 24.1 °F 14.4 °F 15.1 °F 69% 29.83 in 10.0 mi NW 9.2 mph - N/A   Overcast
8:52 PM 23.0 °F 17.0 °F 15.1 °F 72% 29.84 in 8.0 mi NNW 4.6 mph - N/A   Overcast
9:26 PM 23.0 °F 17.0 °F 15.8 °F 74% 29.78 in 4.0 mi NW 4.6 mph - 0.00 in Snow Light Snow
9:33 PM 21.2 °F 14.9 °F 17.6 °F 86% 29.78 in 4.0 mi Variable 4.6 mph - 0.00 in Snow Light Snow
9:52 PM 21.9 °F 14.5 °F 18.0 °F 85% 29.85 in 2.5 mi NW 5.8 mph - 0.00 in Snow Light Snow
9:59 PM 21.2 °F 16.4 °F 17.6 °F 86% 29.79 in 1.2 mi NW 3.5 mph - 0.00 in Snow Light Snow
10:06 PM 21.2 °F - 17.6 °F 86% 29.79 in 2.0 mi Calm Calm - 0.00 in Snow Light Snow
10:25 PM 21.2 °F 16.4 °F 17.6 °F 86% 29.79 in 2.0 mi WNW 3.5 mph - 0.00 in Snow Light Snow
10:52 PM 21.0 °F 13.4 °F 18.0 °F 88% 29.86 in 2.5 mi WNW 5.8 mph - 0.00 in Snow Light Snow
11:06 PM 21.2 °F 11.7 °F 17.6 °F 86% 29.81 in 2.5 mi WNW 8.1 mph - 0.00 in Snow Light Snow
11:10 PM 21.2 °F 12.6 °F 17.6 °F 86% 29.80 in 3.0 mi WNW 6.9 mph - 0.00 in Snow Light Snow
11:38 PM 21.2 °F 11.7 °F 17.6 °F 86% 29.81 in 7.0 mi West 8.1 mph - 0.00 in   Overcast
11:52 PM 21.0 °F 12.4 °F 16.0 °F 81% 29.88 in 8.0 mi WNW 6.9 mph - 0.00 in   Overcast